| time (UTC) | temp F | wind direction | speed knots | gust knots | rain 1hr in | rain 24hr in | rain mn in | humidity % | barometer mb |
| 20260505023229 | 56 | 332 | 0.9 | 4.3 | 0.00 | 0.13 | 0.01 | 92 | 1009.0 |
| 20260505022730 | 56 | 323 | 0.9 | 5.2 | 0.00 | 0.13 | 0.01 | 92 | 1009.0 |
| 20260505022724 | 56 | 333 | 0.9 | 5.2 | 0.00 | 0.13 | 0.01 | 92 | 1009.1 |
| 20260505021716 | 56 | 30 | 0.0 | 2.6 | 0.00 | 0.13 | 0.01 | 92 | 1009.0 |
| 20260505021447 | 56 | 34 | 0.0 | 0.0 | 0.00 | 0.13 | 0.01 | 92 | 1009.0 |
| 20260505020947 | 56 | 34 | 0.9 | 3.5 | 0.00 | 0.13 | 0.01 | 92 | 1008.9 |
| 20260505020209 | 56 | 34 | 0.9 | 3.5 | 0.00 | 0.13 | 0.01 | 92 | 1009.0 |
| 20260505015700 | 56 | 36 | 0.9 | 4.3 | 0.00 | 0.13 | 0.01 | 92 | 1009.1 |
| 20260505015138 | 56 | 32 | 0.9 | 5.2 | 0.00 | 0.14 | 0.01 | 92 | 1009.1 |
| 20260505014859 | 56 | 22 | 0.9 | 5.2 | 0.00 | 0.14 | 0.01 | 91 | 1009.1 |
| 20260505014128 | 56 | 42 | 0.9 | 3.5 | 0.00 | 0.14 | 0.01 | 91 | 1009.1 |
| 20260505013628 | 56 | 342 | 0.9 | 5.2 | 0.00 | 0.14 | 0.01 | 91 | 1009.2 |
| 20260505013124 | 56 | 29 | 0.9 | 5.2 | 0.00 | 0.14 | 0.01 | 91 | 1009.3 |
| 20260505012622 | 56 | 319 | 0.9 | 4.3 | 0.00 | 0.14 | 0.01 | 91 | 1009.3 |
| 20260505012116 | 56 | 318 | 0.9 | 5.2 | 0.00 | 0.14 | 0.01 | 91 | 1009.4 |
| 20260505011616 | 56 | 5 | 0.9 | 5.2 | 0.00 | 0.14 | 0.01 | 91 | 1009.4 |
| 20260505011114 | 56 | 319 | 0.9 | 3.5 | 0.00 | 0.14 | 0.01 | 91 | 1009.5 |
| 20260505010614 | 56 | 327 | 0.9 | 5.2 | 0.00 | 0.15 | 0.01 | 91 | 1009.4 |
| 20260505010114 | 56 | 326 | 0.0 | 5.2 | 0.00 | 0.15 | 0.01 | 91 | 1009.6 |
| 20260505005607 | 56 | 348 | 0.0 | 0.9 | 0.00 | 0.15 | 0.01 | 91 | 1009.6 |
| 20260505005100 | 56 | 348 | 0.0 | 1.7 | 0.01 | 0.15 | 0.01 | 91 | 1009.6 |
| 20260505004829 | 56 | 348 | 0.0 | 1.7 | 0.01 | 0.15 | 0.01 | 91 | 1009.7 |
| 20260505004042 | 56 | 348 | 0.0 | 2.6 | 0.01 | 0.15 | 0.01 | 91 | 1009.8 |
| 20260505003530 | 56 | 348 | 0.0 | 2.6 | 0.01 | 0.15 | 0.01 | 91 | 1009.7 |
| 20260505003022 | 56 | 348 | 0.0 | 2.6 | 0.01 | 0.15 | 0.01 | 92 | 1009.9 |
| 20260505002518 | 56 | 19 | 0.0 | 0.0 | 0.01 | 0.15 | 0.01 | 91 | 1009.9 |
| 20260505002016 | 56 | 19 | 0.0 | 0.0 | 0.01 | 0.15 | 0.01 | 91 | 1009.8 |
| 20260505001502 | 56 | 19 | 0.0 | 0.0 | 0.01 | 0.16 | 0.01 | 91 | 1010.0 |
| 20260505000923 | 56 | 19 | 0.0 | 0.0 | 0.01 | 0.16 | 0.01 | 91 | 1010.0 |
| 20260505000416 | 56 | 19 | 0.0 | 0.0 | 0.01 | 0.16 | 0.01 | 91 | 1010.1 |
| 20260505000140 | 56 | 19 | 0.0 | 0.9 | 0.01 | 0.16 | 0.01 | 91 | 1010.1 |
| 20260504235609 | 56 | 19 | 0.0 | 0.9 | 0.00 | 0.15 | 0.00 | 91 | 1010.1 |
| 20260504234823 | 56 | 13 | 0.0 | 0.9 | 0.00 | 0.15 | 0.00 | 91 | 1010.1 |
| 20260504234535 | 56 | 13 | 0.0 | 1.7 | 0.00 | 0.15 | 0.00 | 91 | 1010.1 |
| 20260504233743 | 56 | 17 | 0.0 | 1.7 | 0.00 | 0.15 | 0.00 | 91 | 1010.1 |
| 20260504233232 | 56 | 17 | 0.0 | 1.7 | 0.00 | 0.15 | 0.00 | 91 | 1010.1 |
| 20260504232722 | 56 | 17 | 0.0 | 1.7 | 0.00 | 0.15 | 0.00 | 91 | 1010.1 |
| 20260504232452 | 56 | 327 | 0.0 | 3.5 | 0.00 | 0.15 | 0.00 | 91 | 1010.1 |
| 20260504231720 | 56 | 325 | 0.0 | 3.5 | 0.00 | 0.15 | 0.00 | 91 | 1010.1 |
| 20260504231218 | 56 | 0 | 0.0 | 1.7 | 0.00 | 0.16 | 0.00 | 91 | 1010.2 |
| 20260504230720 | 56 | 0 | 0.0 | 2.6 | 0.00 | 0.16 | 0.00 | 91 | 1010.3 |
| 20260504230214 | 56 | 5 | 0.0 | 2.6 | 0.00 | 0.16 | 0.00 | 91 | 1010.3 |
| 20260504225708 | 56 | 26 | 0.0 | 4.3 | 0.00 | 0.16 | 0.00 | 91 | 1010.2 |
| 20260504225203 | 56 | 27 | 0.9 | 4.3 | 0.00 | 0.16 | 0.00 | 91 | 1010.3 |
| 20260504224656 | 56 | 12 | 0.0 | 4.3 | 0.00 | 0.16 | 0.00 | 91 | 1010.3 |
| 20260504224156 | 56 | 22 | 0.0 | 3.5 | 0.00 | 0.16 | 0.00 | 91 | 1010.3 |
| 20260504223648 | 56 | 41 | 0.9 | 2.6 | 0.00 | 0.16 | 0.00 | 91 | 1010.4 |
| 20260504223147 | 56 | 19 | 0.9 | 2.6 | 0.00 | 0.16 | 0.00 | 90 | 1010.4 |
| 20260504222646 | 56 | 9 | 0.0 | 2.6 | 0.00 | 0.16 | 0.00 | 90 | 1010.4 |
| 20260504222416 | 56 | 5 | 0.0 | 2.6 | 0.00 | 0.16 | 0.00 | 90 | 1010.4 |
| 20260504221644 | 56 | 22 | 0.0 | 2.6 | 0.00 | 0.16 | 0.00 | 90 | 1010.4 |
| 20260504221120 | 56 | 348 | 0.0 | 2.6 | 0.00 | 0.16 | 0.00 | 90 | 1010.4 |
| 20260504220620 | 56 | 0 | 0.0 | 2.6 | 0.00 | 0.16 | 0.00 | 90 | 1010.5 |
| 20260504220122 | 56 | 5 | 0.0 | 0.0 | 0.00 | 0.16 | 0.00 | 90 | 1010.5 |
| 20260504215612 | 56 | 5 | 0.0 | 1.7 | 0.00 | 0.16 | 0.16 | 90 | 1010.5 |
| 20260504215336 | 56 | 5 | 0.0 | 1.7 | 0.00 | 0.16 | 0.16 | 90 | 1010.6 |
| 20260504214556 | 56 | 5 | 0.0 | 0.0 | 0.00 | 0.16 | 0.16 | 90 | 1010.6 |
| 20260504214048 | 56 | 5 | 0.0 | 0.0 | 0.00 | 0.17 | 0.16 | 90 | 1010.6 |
| 20260504213522 | 56 | 5 | 0.0 | 0.0 | 0.00 | 0.17 | 0.16 | 90 | 1010.7 |
| 20260504213246 | 56 | 5 | 0.0 | 0.0 | 0.01 | 0.17 | 0.16 | 90 | 1010.6 |
| 20260504212456 | 56 | 5 | 0.0 | 0.0 | 0.01 | 0.17 | 0.16 | 90 | 1010.7 |
| 20260504211946 | 56 | 26 | 0.0 | 0.0 | 0.01 | 0.17 | 0.16 | 90 | 1010.7 |
| 20260504211710 | 56 | 26 | 0.0 | 0.0 | 0.01 | 0.17 | 0.16 | 90 | 1010.8 |
| 20260504210915 | 56 | 26 | 0.0 | 0.0 | 0.01 | 0.17 | 0.16 | 90 | 1010.9 |
| 20260504210417 | 56 | 26 | 0.0 | 0.0 | 0.01 | 0.17 | 0.16 | 90 | 1010.9 |
| 20260504205917 | 56 | 26 | 0.0 | 0.0 | 0.01 | 0.17 | 0.16 | 90 | 1010.8 |
| 20260504205408 | 56 | 26 | 0.0 | 0.0 | 0.01 | 0.17 | 0.16 | 90 | 1010.8 |
| 20260504204832 | 56 | 26 | 0.0 | 0.0 | 0.01 | 0.17 | 0.16 | 89 | 1010.9 |
| 20260504204318 | 56 | 26 | 0.0 | 0.0 | 0.01 | 0.17 | 0.16 | 89 | 1010.9 |
| 20260504203816 | 56 | 26 | 0.0 | 0.0 | 0.01 | 0.17 | 0.16 | 89 | 1011.0 |
| 20260504203511 | 56 | 26 | 0.0 | 0.0 | 0.01 | 0.17 | 0.16 | 89 | 1011.0 |
| 20260504202741 | 56 | 26 | 0.0 | 0.0 | 0.00 | 0.16 | 0.15 | 89 | 1010.9 |
| 20260504202238 | 56 | 26 | 0.0 | 0.0 | 0.00 | 0.16 | 0.15 | 89 | 1010.9 |
| 20260504201721 | 56 | 26 | 0.0 | 0.0 | 0.00 | 0.16 | 0.15 | 89 | 1010.7 |
| 20260504201448 | 56 | 26 | 0.0 | 0.0 | 0.00 | 0.16 | 0.15 | 88 | 1010.8 |
| 20260504200710 | 57 | 22 | 0.0 | 1.7 | 0.00 | 0.17 | 0.15 | 88 | 1010.8 |
| 20260504200427 | 57 | 22 | 0.0 | 1.7 | 0.00 | 0.17 | 0.15 | 88 | 1010.8 |
| 20260504195656 | 57 | 22 | 0.0 | 1.7 | 0.00 | 0.17 | 0.15 | 88 | 1010.8 |
| 20260504195150 | 57 | 23 | 0.0 | 3.5 | 0.00 | 0.17 | 0.15 | 88 | 1010.8 |
| 20260504194621 | 57 | 23 | 0.9 | 3.5 | 0.00 | 0.17 | 0.15 | 88 | 1010.6 |
| 20260504194121 | 57 | 50 | 0.0 | 3.5 | 0.00 | 0.17 | 0.15 | 89 | 1010.4 |
| 20260504193614 | 57 | 50 | 0.0 | 0.0 | 0.00 | 0.17 | 0.15 | 89 | 1010.5 |
| 20260504193114 | 58 | 50 | 0.0 | 1.7 | 0.00 | 0.17 | 0.15 | 89 | 1010.6 |
| 20260504192612 | 58 | 50 | 0.0 | 1.7 | 0.00 | 0.17 | 0.15 | 89 | 1010.4 |
| 20260504192102 | 58 | 50 | 0.0 | 0.0 | 0.00 | 0.17 | 0.15 | 89 | 1010.2 |
| 20260504191554 | 58 | 50 | 0.0 | 0.9 | 0.00 | 0.17 | 0.15 | 89 | 1010.1 |
| 20260504191032 | 58 | 50 | 0.0 | 0.9 | 0.01 | 0.17 | 0.15 | 90 | 1010.2 |
| 20260504190520 | 58 | 50 | 0.0 | 0.0 | 0.01 | 0.17 | 0.15 | 90 | 1010.5 |
| 20260504190020 | 58 | 50 | 0.0 | 0.0 | 0.01 | 0.17 | 0.15 | 90 | 1010.5 |
| 20260504185518 | 58 | 50 | 0.0 | 2.6 | 0.01 | 0.17 | 0.15 | 90 | 1010.3 |
| 20260504184507 | 58 | 50 | 0.0 | 2.6 | 0.01 | 0.17 | 0.15 | 90 | 1010.3 |
| 20260504183958 | 58 | 50 | 0.0 | 2.6 | 0.01 | 0.17 | 0.15 | 90 | 1010.3 |
| 20260504183454 | 59 | 50 | 0.0 | 2.6 | 0.01 | 0.17 | 0.15 | 89 | 1010.1 |
| 20260504182944 | 59 | 52 | 0.0 | 1.7 | 0.01 | 0.17 | 0.15 | 89 | 1010.2 |
| 20260504182434 | 59 | 55 | 0.9 | 3.5 | 0.01 | 0.17 | 0.15 | 88 | 1010.2 |
| 20260504181923 | 59 | 5 | 0.9 | 3.5 | 0.01 | 0.17 | 0.15 | 88 | 1010.3 |
| 20260504181420 | 59 | 74 | 0.9 | 4.3 | 0.01 | 0.17 | 0.15 | 88 | 1010.3 |
| 20260504180920 | 59 | 78 | 1.7 | 5.2 | 0.00 | 0.17 | 0.14 | 88 | 1010.4 |
| 20260504180420 | 59 | 79 | 2.6 | 7.8 | 0.00 | 0.17 | 0.14 | 88 | 1010.4 |
| 20260504175918 | 59 | 62 | 1.7 | 7.8 | 0.00 | 0.17 | 0.14 | 88 | 1010.5 |
| 20260504175416 | 59 | 62 | 2.6 | 7.8 | 0.00 | 0.17 | 0.14 | 88 | 1010.4 |
| 20260504174905 | 59 | 61 | 2.6 | 7.8 | 0.00 | 0.17 | 0.14 | 88 | 1010.4 |
| 20260504174400 | 60 | 65 | 2.6 | 8.7 | 0.00 | 0.17 | 0.14 | 88 | 1010.4 |
| 20260504173901 | 60 | 68 | 3.5 | 8.7 | 0.01 | 0.17 | 0.14 | 88 | 1010.5 |
| 20260504173356 | 60 | 64 | 2.6 | 8.7 | 0.01 | 0.17 | 0.14 | 88 | 1010.6 |
| 20260504172849 | 60 | 65 | 1.7 | 6.1 | 0.01 | 0.17 | 0.14 | 89 | 1010.5 |
| 20260504172346 | 61 | 66 | 1.7 | 5.2 | 0.01 | 0.17 | 0.14 | 89 | 1010.4 |
| 20260504172113 | 61 | 46 | 1.7 | 6.1 | 0.01 | 0.17 | 0.14 | 88 | 1010.5 |
| 20260504171609 | 61 | 68 | 1.7 | 6.1 | 0.01 | 0.17 | 0.14 | 89 | 1010.3 |
| 20260504170828 | 61 | 53 | 0.9 | 6.1 | 0.01 | 0.17 | 0.14 | 89 | 1010.3 |
| 20260504170328 | 61 | 59 | 0.9 | 6.1 | 0.01 | 0.17 | 0.14 | 89 | 1010.4 |
| 20260504160220 | 61 | 62 | 1.7 | 5.2 | 0.01 | 0.17 | 0.13 | 89 | 1010.3 |
| 20260504150911 | 60 | 61 | 1.7 | 6.1 | 0.00 | 0.17 | 0.13 | 91 | 1010.4 |
| 20260504150141 | 60 | 49 | 0.9 | 4.3 | 0.00 | 0.17 | 0.13 | 91 | 1010.5 |
| 20260504141117 | 60 | 35 | 0.9 | 6.1 | 0.01 | 0.18 | 0.13 | 92 | 1010.7 |
| 20260504140617 | 59 | 38 | 1.7 | 5.2 | 0.01 | 0.18 | 0.13 | 92 | 1010.7 |
| 20260504140115 | 59 | 15 | 1.7 | 5.2 | 0.01 | 0.19 | 0.13 | 91 | 1010.9 |
| 20260504130654 | 59 | 44 | 1.7 | 6.1 | 0.01 | 0.19 | 0.12 | 91 | 1010.9 |
| 20260504110248 | 60 | 78 | 0.0 | 3.5 | 0.01 | 0.19 | 0.10 | 93 | 1011.4 |
| 20260504100110 | 60 | 333 | 0.0 | 0.0 | 0.01 | 0.19 | 0.09 | 92 | 1011.6 |
| 20260504081706 | 59 | 66 | 0.0 | 0.0 | 0.01 | 0.19 | 0.08 | 94 | 1011.4 |
| 20260504081153 | 58 | 66 | 0.0 | 0.0 | 0.01 | 0.19 | 0.08 | 94 | 1011.4 |
| 20260504080650 | 58 | 66 | 0.0 | 0.0 | 0.01 | 0.20 | 0.08 | 94 | 1011.5 |
| 20260504080142 | 58 | 66 | 0.0 | 0.0 | 0.01 | 0.20 | 0.08 | 94 | 1011.5 |
| 20260504060228 | 56 | 55 | 0.0 | 0.0 | 0.01 | 0.20 | 0.06 | 94 | 1011.0 |
| 20260504050517 | 57 | 264 | 0.0 | 0.0 | 0.01 | 0.20 | 0.06 | 94 | 1010.9 |
| 20260504050017 | 57 | 264 | 0.0 | 0.0 | 0.01 | 0.20 | 0.06 | 94 | 1011.1 |
| 20260504045748 | 57 | 264 | 0.0 | 0.0 | 0.01 | 0.20 | 0.06 | 94 | 1010.8 |
| 20260504045008 | 57 | 264 | 0.0 | 0.0 | 0.01 | 0.21 | 0.06 | 94 | 1010.9 |
| 20260504044502 | 57 | 264 | 0.0 | 0.0 | 0.01 | 0.21 | 0.06 | 94 | 1010.8 |
| 20260504043952 | 57 | 264 | 0.0 | 0.0 | 0.01 | 0.21 | 0.06 | 94 | 1010.8 |
| 20260504043712 | 57 | 264 | 0.0 | 0.0 | 0.01 | 0.21 | 0.06 | 94 | 1010.9 |
| 20260504042936 | 57 | 264 | 0.0 | 0.0 | 0.02 | 0.21 | 0.06 | 94 | 1010.8 |
| 20260504042421 | 57 | 264 | 0.0 | 0.0 | 0.01 | 0.20 | 0.05 | 94 | 1010.9 |
| 20260504041920 | 57 | 264 | 0.0 | 0.0 | 0.01 | 0.20 | 0.05 | 94 | 1010.9 |
| 20260504041416 | 57 | 264 | 0.0 | 0.0 | 0.01 | 0.21 | 0.05 | 94 | 1010.9 |
| 20260504040915 | 57 | 264 | 0.0 | 0.0 | 0.01 | 0.21 | 0.05 | 94 | 1010.9 |
| 20260504040357 | 57 | 264 | 0.0 | 0.0 | 0.01 | 0.21 | 0.05 | 94 | 1010.9 |
| 20260504035822 | 57 | 264 | 0.0 | 0.0 | 0.01 | 0.21 | 0.05 | 94 | 1010.9 |
| 20260504035259 | 57 | 264 | 0.0 | 0.0 | 0.01 | 0.21 | 0.05 | 94 | 1011.0 |
| 20260504034949 | 57 | 264 | 0.0 | 0.0 | 0.01 | 0.21 | 0.05 | 94 | 1011.1 |
| 20260504034216 | 57 | 264 | 0.0 | 0.0 | 0.02 | 0.22 | 0.05 | 94 | 1011.1 |
| 20260504033716 | 57 | 264 | 0.0 | 0.0 | 0.02 | 0.22 | 0.05 | 94 | 1011.0 |
| 20260504033213 | 57 | 264 | 0.0 | 0.0 | 0.01 | 0.21 | 0.04 | 94 | 1011.0 |
| 20260504032707 | 57 | 264 | 0.0 | 0.0 | 0.01 | 0.21 | 0.04 | 94 | 1011.0 |
| 20260504032157 | 57 | 264 | 0.0 | 0.0 | 0.01 | 0.21 | 0.04 | 94 | 1011.1 |
| 20260504031631 | 57 | 264 | 0.0 | 0.0 | 0.01 | 0.21 | 0.04 | 94 | 1011.1 |
| 20260504031352 | 57 | 264 | 0.0 | 0.0 | 0.01 | 0.22 | 0.04 | 94 | 1011.0 |
| 20260504030605 | 57 | 264 | 0.0 | 0.0 | 0.01 | 0.22 | 0.04 | 94 | 1011.0 |
| 20260504030021 | 57 | 264 | 0.0 | 0.0 | 0.01 | 0.22 | 0.04 | 93 | 1011.0 |
| 20260504025451 | 57 | 264 | 0.0 | 0.0 | 0.01 | 0.22 | 0.04 | 93 | 1011.1 |
| 20260504024944 | 57 | 264 | 0.0 | 0.0 | 0.02 | 0.22 | 0.04 | 93 | 1011.2 |
| 20260504024652 | 57 | 264 | 0.0 | 0.0 | 0.01 | 0.22 | 0.03 | 93 | 1011.2 |
| 20260504023921 | 57 | 264 | 0.0 | 0.0 | 0.01 | 0.22 | 0.03 | 93 | 1011.1 |
| 20260504023417 | 57 | 264 | 0.0 | 0.0 | 0.01 | 0.22 | 0.03 | 93 | 1011.1 |